Starlink 30140

operational
NORAD ID: 57458 Int'l Des: 2023-107 Owner: SPXS Country: US Constellation: starlink
LEOCIRCULAR

Über Starlink 30140

Beschreibung wird geladen...

Live-Position

3D-Globus wird geladen...

Nächste Überflüge

Höhenverlauf

Altitude vs Time

uPlot chart will show altitude changes over time

Zweizeiliger Elementsatz

1 57458U 23107B 25306.00451774 .00002521 00000-0 20162-3 0 9990
2 57458 43.0038 312.9972 0001086 277.1041 82.9678 15.02536237125900
Epoch: 2. Nov. 2025 • Age: 39 hours

Aktueller Status

Höhe 562.9 km
Geschwindigkeit 7.59 km/s
Subsatellitenpunkt 43.14°N, 131.33°E
Startdatum 28. Juli 2023
Alter 2.2 years
Typ internet

Technische Details

Klassifizierung Payload
Masse 730.00 kg
Trockenmasse 700.00 kg
Gesamtmasse 730.00 kg
Länge 0.30 m
Durchmesser 4.10 m
Spannweite 29.00 m
Form Box + pan
Hersteller SPXS
Bus-Typ Starlink V2M
Phasenstatus In Orbit
Besitzer/Staat SPXS/US

Große Konstellationen

Loading constellations...